Location: Buena Vista
(37.7110°N, 119.7938°W)
Time: 15:44:51
(UTC+00:00)

RS-15 - Visible Passes

Search period start: 04 October 2024 00:00
Search period end: 14 October 2024 00:00
Orbit: 1898 x 2146 km, 64.8° (Epoch: 03 October)

Date Brightness Start Highest point End Pass type
(mag) Time Alt. Az. Time Alt. Az. Time Alt. Az.
04 Oct 9.7 03:02:47 10° WNW 03:09:51 18° NNW 03:16:48 10° NNE visible
04 Oct 9.5 05:21:32 10° NNW 05:28:34 18° NNE 05:31:39 16° NE visible
04 Oct 9.0 07:33:53 10° NNW 07:39:21 32° N 07:39:21 32° N visible
04 Oct 9.7 09:46:34 10° NW 09:47:03 12° NW 09:47:03 12° NW visible
05 Oct 9.7 02:24:46 10° WNW 02:32:44 21° NNW 02:40:33 10° NNE visible
05 Oct 9.6 04:45:03 10° NNW 04:51:20 16° NNE 04:56:25 12° NE visible
05 Oct 9.0 06:57:56 10° NNW 07:04:07 31° N 07:04:07 31° N visible
05 Oct 9.6 09:10:14 10° NW 09:11:50 16° NW 09:11:50 16° NW visible
06 Oct 9.6 01:46:53 10° W 01:55:45 25° NNW 02:04:26 10° NNE visible
06 Oct 9.7 04:08:11 10° NNW 04:14:01 15° N 04:19:48 10° NE visible
06 Oct 9.1 06:21:57 10° NNW 06:28:56 29° NNE 06:28:56 29° NNE visible
06 Oct 9.4 08:34:02 10° NNW 08:36:39 20° NW 08:36:39 20° NW visible
07 Oct 9.7 03:30:52 10° NW 03:36:40 15° N 03:42:24 10° NNE visible
07 Oct 9.1 05:45:57 10° NNW 05:53:46 26° NNE 05:53:46 26° NNE visible
07 Oct 9.3 07:57:57 10° NNW 08:01:29 25° NNW 08:01:29 25° NNW visible
08 Oct 9.7 02:53:07 10° NW 02:59:20 16° N 03:05:27 10° NNE visible
08 Oct 9.2 05:09:52 10° NNW 05:17:50 22° NNE 05:18:39 22° NNE visible
08 Oct 9.2 07:21:55 10° NNW 07:26:22 29° NNW 07:26:22 29° NNW visible
09 Oct 9.6 02:15:08 10° WNW 02:22:04 18° NNW 02:28:54 10° NNE visible
09 Oct 9.3 04:33:38 10° NNW 04:40:46 19° NNE 04:43:33 17° NE visible
09 Oct 9.0 06:45:56 10° NNW 06:51:16 31° N 06:51:16 31° N visible
09 Oct 9.8 08:58:40 10° NW 08:58:59 11° NW 08:58:59 11° NW visible
10 Oct 9.5 03:57:11 10° NNW 04:03:34 16° NNE 04:08:29 12° NE visible
10 Oct 9.0 06:09:58 10° NNW 06:16:12 32° N 06:16:12 32° N visible
10 Oct 9.6 08:22:19 10° NW 08:23:55 16° NW 08:23:55 16° NW visible
11 Oct 9.6 03:20:23 10° NNW 03:26:15 15° N 03:32:04 10° NE visible
11 Oct 9.0 05:34:00 10° NNW 05:41:09 30° NNE 05:41:09 30° NNE visible
11 Oct 9.4 07:46:06 10° NNW 07:48:53 21° NW 07:48:53 21° NW visible
12 Oct 9.6 02:43:08 10° NW 02:48:54 15° N 02:54:37 10° NNE visible
12 Oct 9.0 04:57:59 10° NNW 05:06:08 27° NNE 05:06:08 27° NNE visible
12 Oct 9.2 07:09:59 10° NNW 07:13:51 26° NNW 07:13:51 26° NNW visible
13 Oct 9.6 02:05:27 10° NW 02:11:34 16° N 02:17:36 10° NNE visible
13 Oct 9.1 04:21:56 10° NNW 04:30:01 22° NNE 04:31:07 22° NE visible
13 Oct 9.0 06:33:57 10° NNW 06:38:51 31° NNW 06:38:51 31° NNW visible
